Date String (YYYY-MM-DD hh:mm:ss) UTC,Instrument flags,Ambient pressure (hPa),Sample flow (lpm),Bypass flow (lpm),Sample temperature (°C),Ambient temperature (°C),ASC tube jacket temperature (°C),LED temperature (°C),Box temperature (°C),Sample RH (%),Span deviation,Mass concentration (μg/m³),Mass concentration (μg/m³),Mass concentration (μg/m³)
DateTimeUTC,F1_M11,P_M11,Q1_M11,Q2_M11,T1_M11,T2_M11,T3_M11,T4_M11,T5_M11,U1_M11,ZSPAN_M11,X0_M11,X2_M11,X1_M11
2021-12-15 17:00:00,,0801.8,5.01,0.00,22.3,21.7,00.0,31.4,24.0,10.5,0000.0,0094.21,0005.23,0000.81
2021-12-15 17:01:00,,0801.9,4.99,0.00,22.4,22.6,00.0,31.4,24.3,10.5,0000.0,0077.78,0005.14,0000.82
2021-12-15 17:02:00,,0801.9,5.00,0.00,22.6,23.2,00.0,31.5,24.6,10.3,0000.0,0030.58,0004.50,0000.74
2021-12-15 17:03:00,,0801.5,5.00,0.00,22.6,23.0,00.0,31.5,24.6,10.2,0000.0,0029.80,0004.40,0000.73
2021-12-15 17:04:00,,0801.4,5.02,0.00,22.6,22.7,00.0,31.5,24.5,10.1,0000.0,0034.88,0004.53,0000.75
2021-12-15 17:05:00,,0801.2,5.01,0.00,22.6,22.4,00.0,31.5,24.4,10.0,0000.0,0038.44,0004.62,0000.77
2021-12-15 17:06:00,,0801.2,5.00,0.00,22.6,22.0,00.0,31.5,24.3,10.0,0000.0,0045.66,0004.84,0000.80
2021-12-15 17:07:00,,0801.3,4.98,0.00,22.5,21.7,00.0,31.5,24.2,09.9,0000.0,0051.33,0005.10,0000.85
2021-12-15 17:08:00,,0801.1,5.00,0.00,22.5,21.5,00.0,31.5,24.1,09.8,0000.0,0088.18,0005.79,0000.94
2021-12-15 17:09:00,,0801.3,5.02,0.00,22.4,21.3,00.0,31.5,24.0,09.6,0000.0,0124.18,0006.50,0001.00
2021-12-15 17:10:00,,0801.4,4.98,0.00,22.4,21.2,00.0,31.4,24.0,09.6,0000.0,0124.13,0006.39,0000.97
2021-12-15 17:11:00,,0801.2,5.02,0.00,22.3,21.1,00.0,31.4,23.9,09.5,0000.0,0139.75,0006.55,0000.96
2021-12-15 17:12:00,,0801.4,5.00,0.00,22.3,21.1,00.0,31.4,23.8,09.4,0000.0,0178.15,0007.32,0001.04
2021-12-15 17:13:00,,0801.4,5.00,0.00,22.3,21.8,00.0,31.4,24.1,09.2,0000.0,0180.64,0007.56,0001.11
2021-12-15 17:14:00,,0801.2,5.00,0.00,22.5,22.7,00.0,31.5,24.4,09.0,0000.0,0182.92,0007.80,0001.16
2021-12-15 17:15:00,,0801.3,5.00,0.00,22.6,23.1,00.0,31.5,24.6,09.1,0000.0,0182.24,0007.90,0001.18
2021-12-15 17:16:00,,0801.3,5.00,0.00,22.6,22.8,00.0,31.5,24.5,09.0,0000.0,0177.04,0007.86,0001.16
2021-12-15 17:17:00,,0801.5,5.00,0.00,22.6,22.5,00.0,31.5,24.4,09.0,0000.0,0170.98,0007.71,0001.13
2021-12-15 17:18:00,,0801.0,4.99,0.00,22.6,22.2,00.0,31.5,24.3,09.1,0000.0,0174.03,0007.63,0001.10
2021-12-15 17:19:00,,0801.0,5.01,0.00,22.6,21.9,00.0,31.5,24.2,09.1,0000.0,0151.78,0007.21,0001.04
2021-12-15 17:20:00,,0800.9,5.01,0.00,22.5,21.6,00.0,31.5,24.1,09.1,0000.0,0141.41,0007.02,0001.04
2021-12-15 17:21:00,,0801.6,4.99,0.00,22.4,21.4,00.0,31.5,24.0,09.1,0000.0,0169.16,0007.51,0001.10
2021-12-15 17:22:00,,0801.8,4.99,0.00,22.4,21.2,00.0,31.4,23.9,09.2,0000.0,0159.48,0007.21,0001.08
2021-12-15 17:23:00,,0801.6,5.01,0.00,22.3,21.2,00.0,31.4,23.9,09.3,0000.0,0113.61,0006.24,0000.96
2021-12-15 17:24:00,,0801.8,5.00,0.00,22.4,21.9,00.0,31.5,24.1,09.2,0000.0,0109.57,0005.98,0000.88
2021-12-15 17:25:00,,0801.3,5.00,0.00,22.5,22.8,00.0,31.5,24.5,09.3,0000.0,0137.18,0006.24,0000.86
2021-12-15 17:26:00,,0800.8,4.99,0.00,22.7,23.4,00.0,31.5,24.7,09.2,0000.0,0330.40,0009.51,0001.11
2021-12-15 17:27:00,,0801.4,4.99,0.00,22.7,23.1,00.0,31.6,24.7,09.1,0000.0,0337.39,0009.93,0001.21
2021-12-15 17:28:00,,0800.8,5.00,0.00,22.7,22.7,00.0,31.6,24.5,09.2,0000.0,0338.53,0010.00,0001.23
2021-12-15 17:29:00,,0800.9,5.01,0.00,22.7,22.3,00.0,31.6,24.4,09.2,0000.0,0335.51,0010.09,0001.24
2021-12-15 17:30:00,,0801.1,4.98,0.00,22.6,21.9,00.0,31.6,24.3,09.2,0000.0,0335.88,0010.12,0001.25
2021-12-15 17:31:00,,0801.3,4.99,0.00,22.6,21.7,00.0,31.6,24.2,09.3,0000.0,0301.29,0009.51,0001.17
2021-12-15 17:32:00,,0801.4,5.01,0.00,22.5,21.5,00.0,31.5,24.1,09.2,0000.0,0272.65,0008.99,0001.11
2021-12-15 17:33:00,,0801.1,4.99,0.00,22.5,21.4,00.0,31.5,24.0,09.2,0000.0,0274.12,0009.11,0001.14
2021-12-15 17:34:00,,0801.1,5.00,0.00,22.4,21.3,00.0,31.5,24.0,09.2,0000.0,0274.94,0009.25,0001.16
2021-12-15 17:35:00,,0801.0,5.00,0.00,22.4,21.2,00.0,31.5,23.9,09.3,0000.0,0275.23,0009.37,0001.20
2021-12-15 17:36:00,,0800.8,4.99,0.00,22.3,21.1,00.0,31.4,23.9,09.3,0000.0,0241.40,0008.97,0001.20
2021-12-15 17:37:00,,0800.7,5.01,0.00,22.3,21.5,00.0,31.5,24.0,09.5,0000.0,0066.81,0006.15,0001.03
2021-12-15 17:38:00,,0800.8,4.99,0.00,22.5,22.6,00.0,31.5,24.3,09.4,0000.0,0083.85,0006.65,0001.06
2021-12-15 17:39:00,,0801.3,5.00,0.00,22.6,23.5,00.0,31.5,24.7,09.5,0000.0,0089.88,0006.97,0001.15
2021-12-15 17:40:00,,0801.0,5.01,0.00,22.7,23.3,00.0,31.6,24.7,09.4,0000.0,0089.63,0006.89,0001.17
2021-12-15 17:41:00,,0801.2,4.99,0.00,22.7,22.9,00.0,31.6,24.6,09.1,0000.0,0092.46,0007.18,0001.24
2021-12-15 17:42:00,,0801.1,5.00,0.00,22.7,22.5,00.0,31.6,24.5,09.1,0000.0,0094.72,0007.52,0001.32
2021-12-15 17:43:00,,0800.7,5.00,0.00,22.7,22.2,00.0,31.6,24.3,09.1,0000.0,0112.83,0007.98,0001.38
2021-12-15 17:44:00,,0801.0,5.00,0.00,22.6,21.9,00.0,31.6,24.2,09.1,0000.0,0231.23,0010.36,0001.60
2021-12-15 17:45:00,,0800.8,4.99,0.00,22.6,21.6,00.0,31.6,24.1,09.1,0000.0,0236.51,0010.51,0001.64
2021-12-15 17:46:00,,0800.7,4.99,0.00,22.5,21.5,00.0,31.6,24.1,09.0,0000.0,0271.70,0011.57,0001.77
2021-12-15 17:47:00,,0800.7,5.01,0.00,22.5,21.3,00.0,31.5,24.0,08.8,0000.0,0280.11,0011.91,0001.82
2021-12-15 17:48:00,,0801.2,5.01,0.00,22.4,21.2,00.0,31.5,23.9,08.6,0000.0,0280.88,0012.00,0001.82
2021-12-15 17:49:00,,0801.6,4.99,0.00,22.3,21.1,00.0,31.5,23.8,08.5,0000.0,0259.15,0011.13,0001.72
2021-12-15 17:50:00,,0801.2,5.00,0.00,22.3,21.0,00.0,31.4,23.8,08.4,0000.0,0254.14,0010.69,0001.61
2021-12-15 17:51:00,,0801.4,5.02,0.00,22.3,21.6,00.0,31.5,24.0,08.5,0000.0,0248.71,0010.48,0001.56
2021-12-15 17:52:00,,0801.4,4.99,0.00,22.5,22.6,00.0,31.5,24.3,08.4,0000.0,0238.66,0009.89,0001.47
2021-12-15 17:53:00,,0800.5,4.99,0.00,22.6,23.3,00.0,31.5,24.6,08.4,0000.0,0248.10,0009.91,0001.43
2021-12-15 17:54:00,,0801.0,5.01,0.00,22.7,23.1,00.0,31.6,24.6,08.3,0000.0,0254.27,0010.41,0001.51
2021-12-15 17:55:00,,0801.4,5.00,0.00,22.7,22.7,00.0,31.6,24.5,08.3,0000.0,0138.15,0008.27,0001.31
2021-12-15 17:56:00,,0801.4,4.99,0.00,22.6,22.3,00.0,31.6,24.3,08.4,0000.0,0138.04,0008.19,0001.26
2021-12-15 17:57:00,,0801.0,5.00,0.00,22.6,21.9,00.0,31.6,24.2,08.5,0000.0,0103.38,0007.05,0001.12
2021-12-15 17:58:00,,0801.2,4.99,0.00,22.5,21.6,00.0,31.5,24.1,08.6,0000.0,0098.22,0006.75,0001.07
2021-12-15 17:59:00,,0801.3,5.01,0.00,22.5,21.4,00.0,31.5,24.1,08.9,0000.0,0084.61,0006.21,0000.99
